Location: Prescott
(34.5400°N, 112.4680°W)
Time: 13:15:20
(UTC-07:00)

Amateur Radio Satellites - All Passes

Search period start: 22 September 2014 12:45
Search period end: 23 September 2014 12:45
Location: Prescott, 34.5400°N, 112.4680°W

Satellite Date Start Highest point End Downlink Frequencies (MHz)
Time Altitude Azimuth
ITAMSAT 1 22 Sep 13:29:42 13:34:34 43° 72° (ENE) 13:39:26 435.822 SSB
Uribyol 2 22 Sep 13:32:57 13:37:55 50° 73° (ENE) 13:42:55 436.500 FM
Gurwin Techsat 1B 22 Sep 13:37:27 13:41:37 24° 68° (ENE) 13:45:48 435.225 FM
Oscar 19 22 Sep 13:39:15 13:44:22 60° 259° (W) 13:49:31 437.125 CW, 437.150 USB
JAS-1B 22 Sep 13:53:49 14:02:34 88° 256° (WSW) 14:09:52 435.800 - 435.900 CW/SSB
AO-27 22 Sep 14:05:13 14:10:23 81° 257° (WSW) 14:15:35 436.795 MHz FM
AO-Echo 22 Sep 14:06:22 14:11:04 66° 259° (WSW) 14:15:44 ?
TMSAT-1 22 Sep 14:11:37 14:16:26 37° 71° (ENE) 14:21:16 436.925 FM
AO-7 22 Sep 14:19:08 14:24:39 20° 56° (NE) 14:30:09 29.400 - 29.500 MHz
Oscar 16 22 Sep 14:19:55 14:23:58 23° 265° (W) 14:28:04 437.025 USB, Beacon 2401.1428
RS-15 22 Sep 14:36:17 14:46:07 37° 253° (WSW) 14:56:23 29.354 - 29.394 USB, Beacon 29.352 USB
ITAMSAT 1 22 Sep 15:10:41 15:14:12 18° 266° (W) 15:17:44 435.822 SSB
Uribyol 2 22 Sep 15:14:33 15:17:37 16° 267° (W) 15:20:43 436.500 FM
Gurwin Techsat 1B 22 Sep 15:16:31 15:21:21 36° 262° (W) 15:26:12 435.225 FM
Uosat F 22 Sep 15:19:47 15:23:57 27° 69° (ENE) 15:28:08 435.120 FM
Saudisat 1A 22 Sep 15:39:37 15:43:53 53° 116° (ESE) 15:48:11 436.775 MHz
JAS-1B 22 Sep 15:49:29 15:53:25 14° 267° (W) 15:57:07 435.800 - 435.900 CW/SSB
TMSAT-1 22 Sep 15:52:20 15:56:24 22° 265° (W) 16:00:29 436.925 FM
AO-7 22 Sep 16:08:08 16:16:27 82° 253° (WSW) 16:24:48 29.400 - 29.500 MHz
MaSat-1 22 Sep 16:12:15 16:13:03 11° 52° (NE) 16:13:51 437.345 MHz
JAS-2 22 Sep 16:24:05 16:27:11 16° 65° (ENE) 16:30:15 435.800 - 435.900 CW/SSB, 435.910 FM
OPAL 22 Sep 16:36:08 16:40:27 27° 98° (E) 16:44:42 ?
Uosat F 22 Sep 16:58:23 17:02:37 28° 263° (W) 17:06:53 435.120 FM
Saudisat 1A 22 Sep 17:21:13 17:23:46 15° 312° (NW) 17:26:20 436.775 MHz
Hamsat 22 Sep 17:30:25 17:34:44 65° 76° (ENE) 17:39:03 145.90 MHz
MaSat-1 22 Sep 17:46:53 17:50:01 33° 254° (WSW) 17:52:45 437.345 MHz
JAS-2 22 Sep 18:06:48 18:11:53 48° 260° (W) 18:16:53 435.800 - 435.900 CW/SSB, 435.910 FM
AO-7 22 Sep 18:06:58 18:10:11 13° 269° (W) 18:13:25 29.400 - 29.500 MHz
OPAL 22 Sep 18:14:49 18:19:15 30° 293° (WNW) 18:23:37 ?
KITSAT 1 22 Sep 18:16:56 18:24:57 72° 114° (ESE) 18:33:00 435.175 FM
SO-67 22 Sep 18:17:32 18:20:17 23° 72° (ENE) 18:23:03 435.3500 MHz FM
STRAND 1 22 Sep 19:00:37 19:05:38 52° 100° (E) 19:10:38 ?
HO-68 22 Sep 19:07:34 19:11:39 16° 58° (ENE) 19:15:44 435.675 MHz FM
Sapphire 22 Sep 19:21:41 19:24:28 14° 48° (NE) 19:27:14 437.095 MHz 1200 baud AX-25 AFSK
PCSat 22 Sep 19:47:09 19:51:33 24° 54° (NE) 19:55:54 145.825 MHz
SO-67 22 Sep 19:51:15 19:53:16 15° 266° (W) 19:55:17 435.3500 MHz FM
KITSAT 1 22 Sep 20:14:39 20:21:02 25° 313° (NW) 20:27:27 435.175 FM
SO-50 22 Sep 20:16:50 20:20:24 24° 111° (ESE) 20:24:03 436.795 FM
STRAND 1 22 Sep 20:41:15 20:44:21 16° 295° (WNW) 20:47:28 ?
HO-68 22 Sep 20:51:18 20:58:26 84° 255° (WSW) 21:05:37 435.675 MHz FM
Oscar 11 22 Sep 20:52:00 20:55:44 28° 71° (ENE) 20:59:28 145.825 FM, Beacon 2401.500 USB
FUNcube-1 22 Sep 20:53:47 20:55:18 12° 65° (ENE) 20:56:48 145.950 - 145.970 MHz USB
Sapphire 22 Sep 21:03:04 21:08:30 80° 246° (WSW) 21:13:55 437.095 MHz 1200 baud AX-25 AFSK
UKube-1 22 Sep 21:11:38 21:15:55 72° 75° (ENE) 21:20:15 145.840 MHz, 145.915 MHz
Oscar 10/S400 22 Sep 21:12:39 21:43:21 71° 191° (S) 07:27:08 145.825 - 145.975 CW/USB, Beacon 145.810 USB
PCSat 22 Sep 21:30:01 21:35:04 41° 250° (WSW) 21:40:04 145.825 MHz
ZACube-1 22 Sep 21:34:06 21:38:04 34° 72° (ENE) 21:42:09 437.345 MHz
UOSAT-12 22 Sep 21:37:06 21:39:02 13° 107° (ESE) 21:40:59 437.025 FM, 437.400 FM
AO-40 22 Sep 21:42:43 23:50:53 36° 209° (SSW) 04:40:24 Beacon 2401.320
SO-50 22 Sep 21:56:53 22:00:47 29° 307° (NW) 22:04:48 436.795 FM
FUNcube-1 22 Sep 22:26:46 22:31:06 57° 260° (W) 22:35:33 145.950 - 145.970 MHz USB
Oscar 11 22 Sep 22:28:37 22:31:52 20° 265° (W) 22:35:08 145.825 FM, Beacon 2401.500 USB
HO-68 22 Sep 22:45:07 22:46:57 11° 270° (W) 22:48:47 435.675 MHz FM
ZACube-1 22 Sep 23:11:31 23:14:32 18° 266° (W) 23:17:36 437.345 MHz
UOSAT-12 22 Sep 23:14:06 23:18:37 57° 302° (WNW) 23:23:15 437.025 FM, 437.400 FM
PANSAT 22 Sep 23:34:04 23:37:06 22° 166° (SSE) 23:40:08 not established
Saudisat 1A 23 Sep 00:10:30 00:13:28 17° 50° (NE) 00:16:25 436.775 MHz
ISS 23 Sep 00:54:18 00:57:36 65° 318° (NW) 01:00:55 145.800 FM
Oscar 16 23 Sep 00:56:19 00:59:30 16° 93° (E) 01:02:39 437.025 USB, Beacon 2401.1428
PANSAT 23 Sep 01:13:24 01:16:52 33° 179° (S) 01:20:19 not established
JAS-1B 23 Sep 01:44:11 01:48:47 25° 97° (E) 01:53:32 435.800 - 435.900 CW/SSB
ITAMSAT 1 23 Sep 01:46:51 01:50:45 21° 95° (E) 01:54:37 435.822 SSB
Saudisat 1A 23 Sep 01:49:02 01:53:14 44° 245° (WSW) 01:57:24 436.775 MHz
Uribyol 2 23 Sep 01:49:51 01:54:03 24° 96° (E) 01:58:13 436.500 FM
Oscar 19 23 Sep 01:54:28 01:59:36 65° 101° (ESE) 02:04:40 437.125 CW, 437.150 USB
Gurwin Techsat 1B 23 Sep 01:58:45 02:00:44 12° 91° (E) 02:02:42 435.225 FM
KITSAT 1 23 Sep 02:15:14 02:20:57 20° 44° (NE) 02:26:38 435.175 FM
AO-Echo 23 Sep 02:16:37 02:21:26 52° 100° (E) 02:26:23 ?
AO-27 23 Sep 02:21:57 02:27:00 49° 100° (E) 02:32:03 436.795 MHz FM
TMSAT-1 23 Sep 02:31:43 02:35:31 20° 94° (E) 02:39:19 436.925 FM
Oscar 16 23 Sep 02:34:06 02:39:04 48° 287° (WNW) 02:43:59 437.025 USB, Beacon 2401.1428
ISS 23 Sep 02:34:23 02:34:51 10° 336° (NNW) 02:35:20 145.800 FM
RS-15 23 Sep 02:42:26 02:52:59 51° 110° (ESE) 03:03:18 29.354 - 29.394 USB, Beacon 29.352 USB
PANSAT 23 Sep 02:53:29 02:56:38 24° 192° (SSW) 02:59:47 not established
ITAMSAT 1 23 Sep 03:25:29 03:30:18 39° 289° (WNW) 03:35:07 435.822 SSB
Uribyol 2 23 Sep 03:28:49 03:33:30 34° 290° (WNW) 03:38:10 436.500 FM
Uosat F 23 Sep 03:33:34 03:34:32 11° 92° (E) 03:35:30 435.120 FM
JAS-1B 23 Sep 03:34:29 03:39:31 34° 291° (WNW) 03:44:41 435.800 - 435.900 CW/SSB
Gurwin Techsat 1B 23 Sep 03:35:49 03:41:06 67° 285° (WNW) 03:46:21 435.225 FM
Oscar 19 23 Sep 03:35:59 03:38:19 13° 296° (WNW) 03:40:39 437.125 CW, 437.150 USB
OPAL 23 Sep 03:47:25 03:52:03 34° 68° (ENE) 03:56:42 ?
AO-Echo 23 Sep 03:56:58 03:59:47 15° 294° (WNW) 04:02:38 ?
AO-27 23 Sep 04:02:42 04:06:05 18° 295° (WNW) 04:09:28 436.795 MHz FM
KITSAT 1 23 Sep 04:09:16 04:17:23 88° 244° (WSW) 04:25:26 435.175 FM
TMSAT-1 23 Sep 04:10:35 04:15:34 42° 288° (WNW) 04:20:31 436.925 FM
AO-7 23 Sep 04:14:01 04:21:47 43° 101° (E) 04:29:31 29.400 - 29.500 MHz
SO-50 23 Sep 04:52:46 04:54:34 12° 45° (NE) 04:56:23 436.795 FM
RS-15 23 Sep 04:55:08 05:05:23 43° 310° (NW) 05:15:37 29.354 - 29.394 USB, Beacon 29.352 USB
Uosat F 23 Sep 05:08:43 05:13:43 69° 285° (WNW) 05:18:43 435.120 FM
JAS-2 23 Sep 05:17:53 05:23:12 26° 97° (E) 05:28:58 435.800 - 435.900 CW/SSB, 435.910 FM
Hamsat 23 Sep 05:21:17 05:23:39 15° 93° (E) 05:26:00 145.90 MHz
OPAL 23 Sep 05:26:42 05:30:54 25° 262° (W) 05:35:08 ?
MaSat-1 23 Sep 05:53:10 05:55:35 14° 101° (E) 05:58:01 437.345 MHz
AO-7 23 Sep 06:06:58 06:14:22 38° 297° (WNW) 06:21:47 29.400 - 29.500 MHz
KITSAT 1 23 Sep 06:07:49 06:11:37 14° 260° (W) 06:15:25 435.175 FM
STRAND 1 23 Sep 06:13:08 06:18:02 52° 73° (ENE) 06:22:59 ?
SO-50 23 Sep 06:30:54 06:35:45 87° 242° (WSW) 06:40:38 436.795 FM
Hamsat 23 Sep 06:55:51 06:59:43 36° 287° (WNW) 07:03:32 145.90 MHz
JAS-2 23 Sep 07:02:14 07:08:15 47° 288° (WNW) 07:15:00 435.800 - 435.900 CW/SSB, 435.910 FM
SO-67 23 Sep 07:16:41 07:20:00 43° 99° (E) 07:23:18 435.3500 MHz FM
RS-15 23 Sep 07:17:10 07:21:55 13° 341° (NNW) 07:26:42 29.354 - 29.394 USB, Beacon 29.352 USB
ISS 23 Sep 07:26:04 07:29:01 28° 36° (NE) 07:31:56 145.800 FM
MaSat-1 23 Sep 07:26:52 07:31:47 60° 295° (WNW) 07:36:39 437.345 MHz
UOSAT-12 23 Sep 07:47:05 07:51:38 45° 57° (ENE) 07:56:04 437.025 FM, 437.400 FM
STRAND 1 23 Sep 07:54:41 07:57:29 15° 267° (W) 08:00:18 ?
HO-68 23 Sep 08:24:07 08:29:29 22° 95° (E) 08:34:50 435.675 MHz FM
ISS 23 Sep 09:02:57 09:05:36 22° 230° (SW) 09:08:16 145.800 FM
UKube-1 23 Sep 09:04:40 09:07:22 16° 94° (E) 09:10:03 145.840 MHz, 145.915 MHz
UOSAT-12 23 Sep 09:28:28 09:31:21 16° 252° (WSW) 09:34:13 437.025 FM, 437.400 FM
RS-15 23 Sep 09:36:23 09:41:33 14° 21° (NNE) 09:46:46 29.354 - 29.394 USB, Beacon 29.352 USB
Sapphire 23 Sep 09:59:29 10:03:33 22° 106° (ESE) 10:07:38 437.095 MHz 1200 baud AX-25 AFSK
HO-68 23 Sep 10:10:29 10:17:30 59° 290° (WNW) 10:24:30 435.675 MHz FM
Oscar 11 23 Sep 10:18:28 10:22:49 86° 283° (WNW) 10:27:08 145.825 FM, Beacon 2401.500 USB
FUNcube-1 23 Sep 10:19:39 10:23:54 36° 98° (E) 10:28:03 145.950 - 145.970 MHz USB
PCSat 23 Sep 10:24:51 10:29:55 43° 110° (ESE) 10:35:01 145.825 MHz
UKube-1 23 Sep 10:39:39 10:43:38 36° 288° (WNW) 10:47:37 145.840 MHz, 145.915 MHz
ZACube-1 23 Sep 11:02:41 11:07:17 69° 284° (WNW) 11:11:46 437.345 MHz
Sapphire 23 Sep 11:41:34 11:46:38 41° 301° (WNW) 11:51:46 437.095 MHz 1200 baud AX-25 AFSK
RS-15 23 Sep 11:47:27 11:57:58 45° 51° (NE) 12:08:49 29.354 - 29.394 USB, Beacon 29.352 USB
FUNcube-1 23 Sep 11:56:51 11:59:57 18° 292° (WNW) 12:03:02 145.950 - 145.970 MHz USB
PCSat 23 Sep 12:09:13 12:13:28 23° 306° (NW) 12:17:46 145.825 MHz
Oscar 16 23 Sep 12:10:07 12:13:32 18° 66° (ENE) 12:16:57 437.025 USB, Beacon 2401.1428
JAS-1B 23 Sep 12:25:31 12:31:25 23° 66° (ENE) 12:36:40 435.800 - 435.900 CW/SSB
